Simultaneous Nadir Overpasses (SNOs) Predictions

Prediction of SNOs between FY3D and METOP-A Satellite Orbit:

Table of predicted SNOs for the next 14.0 days since TLE Epoch: 9/18/2020
Index Date (FY3D) Time (FY3D) Lat,Lon (FY3D) SZA (FY3D ) Date (METOP-A) Time (METOP-A) Lat,Lon (METOP-A) SZA (METOP-A ) Distance(km) Time Diff (sec)
1 10/01/2020 14:07:52 76.59, -49.00 80.46 10/01/2020 14:08:58 76.58, -45.73 80.26 84.38 66
2 10/01/2020 14:58:34 -76.52, 118.60 99.62 10/01/2020 14:59:42 -76.48, 121.27 99.81 69.35 68
3 10/01/2020 15:49:15 76.32, -73.36 80.17 10/01/2020 15:50:26 76.28, -72.10 80.04 33.35 71
4 10/01/2020 16:39:57 -76.25, 94.22 99.91 10/01/2020 16:41:10 -76.19, 94.91 100.02 19.24 73
5 10/01/2020 17:30:40 76.14, -98.08 79.98 10/01/2020 17:31:51 76.13, -97.98 79.94 3.00 71
6 10/01/2020 18:21:23 -76.11, 69.34 100.05 10/01/2020 18:22:33 -76.13, 69.35 100.05 1.87 70
7 10/01/2020 19:12:08 76.09,-123.28 79.95 10/01/2020 19:13:13 76.11,-123.38 79.96 3.20 65
8 10/01/2020 20:02:52 -76.11, 43.97 100.02 10/01/2020 20:03:55 -76.11, 43.95 100.03 0.68 63
9 10/01/2020 20:53:37 76.09,-148.65 79.97 10/01/2020 20:54:35 76.09,-148.78 79.97 3.61 58
10 10/01/2020 21:44:21 -76.11, 18.61 100.00 10/01/2020 21:45:17 -76.09, 18.55 100.02 2.41 56
11 10/01/2020 22:35:06 76.09,-174.01 80.00 10/01/2020 22:35:56 76.12,-174.03 80.02 3.44 50
12 10/01/2020 23:25:50 -76.10, -6.75 99.97 10/01/2020 23:26:38 -76.12, -6.70 99.97 2.18 48
13 10/02/2020 00:16:35 76.09, 160.62 80.02 10/02/2020 00:17:18 76.10, 160.57 80.03 2.18 43
14 10/02/2020 01:07:19 -76.10, -32.12 99.95 10/02/2020 01:08:00 -76.10, -32.10 99.96 0.46 41
15 10/02/2020 01:58:03 76.08, 135.26 80.05 10/02/2020 01:58:39 76.08, 135.17 80.04 2.50 36
16 10/02/2020 02:48:47 -76.10, -57.48 99.92 10/02/2020 02:49:21 -76.08, -57.50 99.95 2.03 34
17 10/02/2020 03:39:32 76.08, 109.90 80.07 10/02/2020 03:40:00 76.11, 109.92 80.09 3.22 28
18 10/02/2020 04:30:16 -76.10, -82.84 99.90 10/02/2020 04:30:42 -76.11, -82.75 99.90 2.92 26
19 10/02/2020 05:21:01 76.08, 84.53 80.10 10/02/2020 05:21:22 76.09, 84.52 80.11 1.39 21
20 10/02/2020 06:11:45 -76.10,-108.21 99.87 10/02/2020 06:12:04 -76.09,-108.15 99.89 1.59 19
21 10/02/2020 07:02:30 76.08, 59.17 80.12 10/02/2020 07:02:44 76.07, 59.12 80.12 1.44 14
22 10/02/2020 07:53:14 -76.10,-133.57 99.85 10/02/2020 07:53:26 -76.08,-133.55 99.87 2.23 12
23 10/02/2020 08:43:59 76.08, 33.80 80.15 10/02/2020 08:44:06 76.06, 33.72 80.13 3.28 7
24 10/02/2020 09:34:43 -76.09,-158.94 99.83 10/02/2020 09:34:47 -76.10,-158.80 99.82 3.85 4
25 10/02/2020 10:25:28 76.07, 8.44 80.17 10/02/2020 10:25:27 76.08, 8.47 80.18 1.33 1
26 10/02/2020 11:16:12 -76.09, 175.70 99.80 10/02/2020 11:16:09 -76.09, 175.80 99.81 2.72 3
27 10/02/2020 12:06:57 76.07, -16.92 80.20 10/02/2020 12:06:49 76.07, -16.93 80.19 0.76 8
28 10/02/2020 12:57:41 -76.09, 150.34 99.78 10/02/2020 12:57:31 -76.07, 150.40 99.80 2.90 10
29 10/02/2020 13:48:26 76.07, -42.29 80.22 10/02/2020 13:48:11 76.05, -42.33 80.20 2.82 15
30 10/02/2020 14:39:09 -76.04, 125.13 99.80 10/02/2020 14:38:53 -76.05, 125.00 99.79 3.67 16
31 10/02/2020 15:29:55 76.07, -67.65 80.25 10/02/2020 15:29:32 76.08, -67.58 80.25 2.08 23
32 10/02/2020 16:20:39 -76.09, 99.61 99.73 10/02/2020 16:20:14 -76.08, 99.75 99.74 3.85 25
33 10/02/2020 17:11:24 76.07, -93.02 80.27 10/02/2020 17:10:54 76.06, -92.98 80.27 1.34 30
34 10/02/2020 18:02:07 -76.04, 74.40 99.76 10/02/2020 18:01:36 -76.06, 74.35 99.72 2.87 31
35 10/02/2020 18:52:53 76.07,-118.38 80.30 10/02/2020 18:52:16 76.04,-118.38 80.28 2.81 37
36 10/02/2020 19:43:36 -76.04, 49.04 99.73 10/02/2020 19:42:58 -76.04, 48.95 99.71 2.53 38
37 10/02/2020 20:34:22 76.06,-143.75 80.32 10/02/2020 20:33:37 76.07,-143.63 80.33 3.09 45
